Portada
METAR-TAF:

METAR-TAF

Aeroports :

Salem-Leckrone Airport

Salem, Illinois, Estats Units d'Amèrica

latitud: 38-38-34N, longitud: 088-57-51W, altitud: 175 m

Observació

L'informe es va fer fa 29 minuts, a les 02:15 UTC
Vent 4 kt del Sud
Temperatura 27°C
Humitat 54%
Pressió 1013 hPa
Visibilitat: 16.1 km
Cel clar

METAR: KSLO 140215Z AUTO 17004KT 10SM CLR 27/17 A2990 RMK AO2 T02700173

Hora: 21:44 (02:44 UTC)


TAF: manca

Observacions i pronòstics meteorològics de més de 4000 aeroports (METAR i TAF).

Les estacions disponibles són els punts grocs i vermells al mapa.

Posi el ratolí al punt desitjat per veure el nom de l'estació.

Feu clic per veure les observacions i els pronòstics meteorològics.

Per canviar el mapa: feu clic els botons verds amb una creu de color negre per apropar; al botó verd amb un guió per allunyar la imatge; o en les fletxes verdes per a mapes adjacents.


METAR-TAF: